DELTA 1 DEB, 10653

Orbit data source: Space-Track

DELTA 1 DEB, 10653 is space debris in SSO originally from a launch on Thu, 29 Jul 1976 UTC launched from the Air Force Western Test Range (AFWTR). Debris objects in space refer to the collection of defunct objects orbiting the Earth. Examples of debris include non-operational satellites, rocket bodies, and fragments generated from explosions, collisions, or faulty payload assembly.

Loading next visibility...
Identifier
10653, 1976-077P
Orbit
SSO
Country
Flag of USUS
Related business
Manufacturer
Unknown
Mission
Spacecraft
Bus & Motor
Unknown
Mass
Unknown
Launch date (UTC)
1976-07-29 (49 years ago)
Launch vehicle
Unknown
Launch site
Air Force Western Test Range (AFWTR)
Object type
Payload
Rocket body
Debris
Shape & HBR
Unknown shape, 0.3 m
Radar Cross Section
Medium (>0.1 m² and <1 m²)

Expand to show TLE details & history
Last TLE update: 13 hours ago

TLE from 13 hours ago
0 DELTA 1 DEB
1 10653U 76077P   25292.30987315  .00000033  00000-0  70223-3 0  9991
2 10653 102.6293  45.3819 0128044 124.9574 303.1208 12.24223837199652
Epoch: 2025-10-19T07:26Z
TLE epoch observation values (Epoch: 2025-10-19T07:26:13.040Z)
Latitude
63.87361°
Longitude
-121.2405°
Altitude
1,530.258 km
Speed
7.131 km/s
True Right ascension
01h 13m 22s
True Declination
63° 45' 03"
Sunlit
Object was in partial shadow at epoch
Visualization orbit readout
Latitude
Unknown
Longitude
Unknown
Altitude
Unknown
Speed
Unknown
Apparent Right ascension
Unknown
Apparent Declination
Unknown
Sunlit
N/A
Visualization observer readout
Local Sidereal Time
15:48:49
Azimuth
Unknown
Elevation
Unknown
Doppler factor
Unknown
Orbital elements
Apogee altitude
1,673.625 km
Perigee altitude
1,470.035 km
Semi-major axis
7,949.967 km
Eccentricity
0.0128
Inclination
102.6293°
RAAN
45.3819°
Arg. of periapsis
124.9574°
True anomaly
301.88119°
Mean anomaly
303.1208°
Eccentric anomaly
302.50207°
Mean motion
3.06193 °/min
Orbital period
117.57 mins
BSTAR
0.00070223
Loading maneuver chart data...
Computing Atmospheric mass density...
Loading historical data...
Loading historical data...
Loading historical data...
Loading historical data...
Loading historical data...
Loading historical data...
Loading historical data...

Documentation

Showing up to 5 results
|